Theta_e
339 340 341 343 344 347 354 356 359 362 361 359 355 354 352 353 353 354 361 368 364 366 368 361 361 366 360 360 366 362 361 360 357 356 357 357 351 350 351 349 349 354 366
341 341 342 342 343 348 352 358 358 365 361 358 358 357 355 354 353 354 359 362 365 365 366 365 362 363 362 364 363 369 360 361 360 356 351 346 351 345 343 345 341 351 363
341 343 343 343 343 347 352 358 359 364 362 364 361 364 363 360 358 357 359 361 362 362 365 369 366 364 371 358 368 368 367 356 359 362 355 343 340 346 341 338 347 352 357
344 346 345 345 344 346 353 357 361 363 365 365 365 364 356 354 357 363 361 359 363 362 363 367 368 368 363 362 361 365 361 364 356 358 360 360 354 339 339 348 345 348 349
341 344 347 348 348 348 350 355 361 362 366 367 365 365 360 360 359 359 363 368 371 365 364 366 368 369 367 364 366 366 367 363 357 357 355 356 352 351 346 339 344 349 354
339 340 347 352 350 351 351 354 361 363 364 368 367 365 367 360 359 360 357 359 361 363 366 365 368 367 366 365 367 369 367 364 364 362 360 354 349 348 348 346 348 345 347
337 339 342 349 352 351 352 352 359 361 366 365 368 367 367 369 367 364 362 364 358 358 362 365 365 366 367 367 371 363 368 368 363 364 357 359 354 357 356 348 341 332 341
336 338 339 339 353 354 356 354 358 361 363 367 367 376 372 368 364 366 365 361 359 358 364 371 366 368 371 367 366 363 367 367 365 363 363 359 358 357 355 353 341 341 341
339 341 343 344 346 353 355 355 359 363 365 366 371 372 363 366 364 367 365 363 362 361 366 377 368 368 367 370 363 361 364 364 367 362 362 361 360 357 357 357 355 345 334
339 342 344 346 347 348 351 354 355 361 366 366 366 355 348 346 362 364 363 364 367 372 365 369 376 369 367 365 366 365 366 364 362 361 363 362 360 358 355 353 353 350 341
337 339 343 345 346 347 349 350 351 355 361 361 354 347 345 345 356 361 364 365 368 368 370 376 374 372 367 367 367 364 365 362 362 364 362 359 361 357 356 357 354 351 353
340 340 341 343 345 347 349 349 353 355 358 366 364 357 363 367 367 372 370 369 368 372 371 372 373 372 368 369 364 362 362 360 358 359 359 358 354 350 351 353 353 352 354
343 344 346 347 348 349 351 352 351 352 356 364 364 370 375 376 371 370 372 372 372 372 370 371 369 369 368 365 363 362 360 360 359 358 357 354 347 345 345 349 351 351 350
346 345 346 349 351 352 352 352 348 349 353 356 358 363 363 365 365 369 374 373 371 369 370 370 369 369 367 364 362 359 358 357 356 356 353 349 343 344 343 349 347 349 345
343 341 340 342 343 345 347 347 345 347 348 351 352 356 360 362 362 363 364 368 370 368 368 367 367 367 363 360 358 356 354 353 351 351 347 347 342 340 341 343 341 342 341
338 338 337 337 338 341 341 342 344 345 347 346 346 349 351 355 357 358 360 361 360 364 365 363 364 363 358 343 342 351 352 352 349 345 346 342 340 337 335 336 338 340 336
335 334 335 337 338 339 340 341 343 347 347 347 347 347 348 347 348 353 354 356 354 354 354 355 360 358 355 336 337 340 348 350 348 349 343 343 341 342 338 332 333 333 334
332 333 334 333 335 337 339 340 340 342 341 341 342 343 344 343 345 345 346 352 354 352 352 351 353 349 342 331 332 337 350 349 350 348 346 345 342 336 341 337 335 334 330
332 332 331 331 337 333 337 336 336 337 337 337 338 338 339 339 339 339 341 343 348 348 353 353 349 345 334 327 327 335 348 347 345 346 344 344 338 323 323 338 328 324 322
332 330 330 330 332 334 334 334 333 333 332 332 332 335 336 336 335 336 338 340 341 345 349 349 347 337 335 323 323 329 347 342 337 332 327 328 326 318 320 336 333 321 322
331 330 330 330 332 334 332 330 330 328 328 332 333 335 334 333 334 333 334 337 338 341 343 344 342 345 338 333 320 321 335 338 334 331 324 319 315 314 317 320 335 329 331
330 329 329 331 334 334 332 329 325 324 329 330 328 328 329 330 331 329 329 333 336 337 338 340 333 340 336 324 319 319 320 329 331 329 323 318 312 313 316 320 317 322 323
331 330 330 331 332 332 331 326 327 325 326 324 322 323 323 321 318 320 329 333 336 335 336 331 330 326 323 320 316 316 319 321 324 321 318 313 309 310 313 314 316 316 322
329 329 329 329 329 331 330 329 327 330 328 322 321 323 322 321 314 311 314 328 335 329 328 323 317 316 316 318 321 321 320 317 318 317 318 318 318 317 319 318 319 320 318
330 330 329 327 327 329 329 328 327 328 326 326 323 321 319 320 317 312 305 310 309 317 322 319 316 314 312 312 310 315 320 320 317 318 319 317 322 320 320 323 323 318 319
331 331 330 328 328 327 328 329 331 329 327 323 321 318 316 315 315 314 313 308 304 302 302 303 309 308 305 302 301 301 302 304 310 320 318 318 319 321 322 320 320 315 318
Wind_Speed
18 18 17 17 15 16 15 14 11 11 9 9 10 9 9 8 6 6 7 5 5 7 7 6 7 6 6 6 5 4 6 5 4 2 3 3 4 9 8 10 13 13 7
19 18 17 16 16 15 15 15 14 11 10 8 9 8 8 8 8 7 7 9 7 7 6 7 7 6 4 4 3 4 4 3 3 3 3 3 3 5 5 5 5 11 11
19 18 18 17 17 17 17 16 15 12 12 11 8 6 6 6 6 6 6 8 9 9 8 6 7 7 5 4 4 4 5 4 4 5 0 2 2 2 2 3 4 10 7
19 19 20 19 18 17 16 16 15 15 13 13 9 9 7 7 6 4 6 8 12 12 11 10 8 7 5 5 5 5 5 4 4 4 3 4 3 2 2 1 4 8 12
17 22 24 22 20 18 17 17 17 15 14 13 12 8 11 7 7 6 8 8 7 12 13 11 10 8 7 7 6 5 5 4 4 4 3 3 3 6 2 3 3 6 10
4 7 15 24 21 18 17 18 18 16 15 15 15 13 9 12 8 8 8 7 7 8 13 13 11 11 10 9 7 6 7 6 5 4 4 4 5 3 3 4 3 3 5
4 2 6 13 19 19 18 15 18 18 16 14 14 15 10 7 8 9 7 7 7 6 9 14 12 10 11 9 5 6 6 5 5 5 6 4 6 4 1 1 3 4 4
8 10 5 6 17 17 16 16 17 18 17 16 13 5 9 7 9 10 9 8 9 9 9 9 12 12 10 10 7 6 6 6 6 8 6 5 6 4 5 4 4 3 5
9 10 7 5 3 13 15 13 12 17 15 13 9 7 3 5 9 11 14 10 11 11 10 6 13 12 11 9 10 7 8 8 6 6 8 7 6 5 6 6 6 8 3
12 11 9 7 4 2 5 10 13 17 17 13 10 8 12 14 7 11 17 15 10 8 10 7 4 11 12 11 9 8 8 8 7 7 6 7 6 6 7 8 8 2 5
12 11 11 9 9 7 6 4 1 11 13 10 9 5 9 10 7 14 15 14 12 9 10 7 6 6 9 9 9 9 8 9 7 5 5 6 5 5 7 5 7 9 5
12 12 11 12 9 10 11 10 8 9 9 4 9 10 11 8 5 5 8 10 11 8 9 8 7 6 8 7 8 9 9 6 7 6 5 5 3 4 6 8 9 10 7
14 11 12 11 11 9 8 5 7 8 9 3 1 2 2 4 5 8 8 9 8 8 8 8 8 9 8 9 7 6 6 5 4 4 3 3 3 4 7 9 8 5 6
11 13 11 8 7 7 7 8 9 9 8 7 7 5 5 6 7 8 7 8 7 8 8 8 8 9 7 7 6 6 5 4 4 2 2 2 1 8 6 4 4 2 1
13 12 10 7 6 5 6 6 7 7 7 7 7 7 7 6 8 9 9 11 8 8 8 9 10 8 9 8 9 7 5 6 5 5 4 3 2 2 6 2 3 4 4
13 11 10 8 5 5 5 4 5 5 5 7 8 8 9 10 9 9 10 9 11 9 8 9 9 10 8 11 10 10 7 7 8 7 5 6 3 2 3 5 4 3 3
13 9 8 6 4 3 3 5 5 4 5 6 7 8 8 9 10 11 10 9 9 8 6 8 10 10 8 9 14 12 7 9 9 7 7 8 8 8 4 4 7 8 6
14 8 7 4 5 7 9 7 8 7 8 8 8 9 9 10 9 10 12 11 7 9 9 9 7 4 3 10 11 10 8 7 7 7 7 4 6 3 6 7 6 5 6
10 7 7 6 9 9 8 8 8 9 9 10 11 12 12 13 13 13 12 11 10 8 10 8 7 6 7 10 8 9 6 7 8 5 3 6 6 2 4 5 10 7 4
10 7 6 7 8 8 9 10 10 11 11 12 12 12 12 12 12 13 13 11 10 12 8 8 6 12 8 12 12 8 3 8 6 6 6 11 7 3 6 5 6 8 6
9 3 3 5 6 8 9 10 10 13 13 13 12 12 12 12 13 12 11 11 11 10 10 6 4 9 11 9 11 8 3 7 7 6 5 4 6 3 3 4 3 6 8
4 1 2 5 7 7 8 9 12 11 12 12 13 14 15 14 11 11 10 10 10 9 11 5 2 2 2 6 6 2 6 5 8 7 6 5 4 2 3 6 5 7 1
3 1 3 5 7 7 8 9 8 10 11 11 11 11 10 11 12 13 13 9 9 7 5 2 4 6 6 7 11 7 2 1 9 9 10 11 8 8 7 7 4 1 3
1 2 2 7 6 7 7 7 8 7 8 9 9 10 10 10 10 9 9 9 4 3 4 7 8 6 8 6 5 5 6 15 12 15 10 6 5 3 4 1 1 1 4
2 3 4 4 6 5 5 9 7 8 6 6 8 10 9 10 9 8 12 8 9 6 5 6 7 9 8 4 6 7 5 3 9 7 6 6 3 4 2 3 4 3 1
6 5 5 4 5 6 7 6 6 6 6 7 9 8 9 9 10 8 8 24 25 27 24 20 12 8 9 8 15 12 12 13 9 3 2 2 4 6 5 4 4 3 2
Wind_Direction
185 179 192 183 183 173 169 174 185 174 168 170 182 209 210 209 220 213 229 228 207 196 202 234 264 232 248 270 174 181 225 243 232 230 266 269 324 59 61 352 336 327 242
183 180 185 183 186 178 179 175 186 177 181 184 189 197 216 214 206 208 210 198 203 219 230 211 244 265 264 186 222 248 277 276 279 199 203 310 122 42 46 134 262 287 245
190 180 178 190 188 186 182 177 184 184 185 192 199 211 210 222 211 208 206 196 201 211 228 249 222 244 263 261 233 212 239 269 294 256 196 320 9 182 258 346 352 288 287
185 177 176 185 194 193 182 181 182 186 187 204 202 208 212 231 227 235 216 212 194 202 210 219 229 246 255 260 258 222 222 216 273 302 236 216 139 164 106 117 231 285 300
191 189 180 183 192 193 184 183 182 194 190 196 221 199 215 215 227 233 232 222 201 198 206 210 214 225 223 243 257 276 211 225 248 280 316 281 182 227 192 275 172 233 247
268 266 199 177 182 188 188 181 176 187 198 193 203 228 224 214 236 215 238 242 228 210 203 208 203 211 215 228 236 235 231 218 270 287 300 294 287 263 245 224 238 235 253
3 195 219 184 175 182 186 189 176 183 189 207 205 219 243 267 238 252 262 266 258 240 205 204 206 205 205 214 217 225 240 203 232 241 249 260 271 303 335 232 272 270 310
49 32 54 220 169 177 185 190 173 178 188 189 216 204 206 252 274 272 263 245 244 250 269 199 206 200 199 202 197 238 223 204 214 241 244 252 267 255 261 216 186 272 249
66 64 69 59 61 174 177 196 183 170 177 192 176 177 200 247 263 298 280 250 247 270 268 221 193 199 198 188 191 214 225 225 198 221 240 241 248 252 273 264 241 236 246
105 91 78 76 105 184 175 187 194 162 168 175 164 148 198 211 188 213 260 272 274 248 252 267 233 202 191 191 191 202 213 210 218 223 225 225 238 240 245 265 279 209 204
123 109 96 95 113 112 112 91 356 129 148 163 139 171 275 273 235 232 238 244 257 265 277 277 239 234 196 201 195 198 225 210 213 234 246 266 265 275 280 266 263 267 254
118 113 120 125 91 59 60 67 72 67 71 80 163 195 215 243 281 259 249 244 242 243 251 254 258 240 219 217 200 204 222 194 225 228 240 263 306 328 307 289 265 250 256
111 106 80 63 64 61 60 102 91 74 61 2 235 214 235 233 235 245 248 255 272 272 256 256 236 235 220 216 203 186 221 241 224 236 233 255 291 305 302 286 270 259 259
131 109 100 92 83 63 44 25 42 38 45 5 348 348 324 319 295 290 274 242 238 252 253 256 246 233 214 207 177 175 193 236 236 206 239 173 328 313 315 330 5 312 109
125 123 117 103 96 77 83 45 36 16 3 347 323 315 313 302 305 303 302 299 271 262 253 250 248 218 193 190 177 178 178 220 180 196 213 190 60 277 298 351 63 65 66
118 112 116 111 86 82 41 34 33 359 348 324 316 317 321 307 288 289 290 294 303 277 272 257 243 202 193 185 185 166 206 210 189 199 195 135 149 104 21 76 87 132 116
110 106 90 87 78 48 31 15 351 315 295 281 282 282 281 291 298 294 275 274 280 267 269 287 259 217 208 160 177 174 216 197 190 192 186 194 148 144 127 77 87 77 95
95 85 77 29 40 36 30 354 346 331 335 320 321 319 312 302 295 297 301 284 267 280 245 244 252 213 144 157 172 181 208 185 193 200 198 174 138 96 157 175 139 91 53
83 69 47 19 52 19 2 355 336 343 342 336 334 328 323 313 305 296 290 292 284 271 278 250 209 151 164 172 185 161 200 178 175 155 99 137 119 67 38 127 116 113 98
81 49 30 32 39 17 356 351 356 346 352 335 327 315 310 304 298 300 294 283 288 279 267 254 204 145 177 180 177 176 208 163 132 113 76 93 113 90 48 146 149 139 159
89 3 45 53 42 21 2 6 355 0 339 325 313 336 328 315 303 301 292 288 280 278 256 228 235 172 172 186 174 176 243 161 148 145 126 103 109 123 74 26 156 133 138
96 77 78 72 59 30 25 17 17 351 346 351 354 348 344 337 322 307 295 290 290 282 252 226 170 247 168 138 129 207 246 229 157 156 122 110 139 157 104 84 89 98 147
106 298 70 89 59 41 39 32 26 7 10 4 355 347 347 354 342 333 322 293 271 254 191 126 94 87 69 59 59 88 96 114 106 115 117 125 135 117 93 118 117 326 247
337 24 52 69 55 42 39 50 16 16 34 15 8 4 360 2 4 354 337 342 354 79 101 113 102 100 88 77 59 74 89 86 89 103 122 130 141 142 113 167 198 76 38
194 220 138 109 92 75 54 40 35 22 12 29 21 20 9 4 20 37 17 2 12 16 106 109 113 121 103 97 79 101 80 78 108 114 125 149 172 148 155 254 108 91 94
169 214 141 136 91 83 68 51 42 34 18 32 43 44 30 22 24 23 34 43 47 46 44 49 68 68 78 76 68 64 60 46 25 105 168 205 161 202 161 170 147 133 44